Find Starlink 30235

NORAD ID: 57294 Int'l Des: 2023-096 Owner: SPXS Country: US Constellation: starlink operational
LEOCIRCULAR

当前视图

正在加载3D地球...

About Starlink 30235

Starlink 30235 (NORAD 57294) is a starlink constellation satellite (v2 mini) launched Jul 10, 2023 by SPXS of US. It operates in LEO, CIRCULAR orbit with a mass of 730.00 kg.

关于 Starlink 30235

正在加载描述...

即将过境

Passes for default location (London). Set your location on the main map for personalized predictions.

高度历史

Loading altitude history...

两行轨道根数

1 57294U 23096E 26162.42918717 .00000486 00000-0 27169-4 0 9990
2 57294 42.9982 53.7874 0000395 217.5989 142.4835 15.27579263161951
Epoch: Jun 11, 2026 • Age: 41 hours

当前状态

高度 482.5 km
速度 7.63 km/s
星下点 21.49°N, 118.45°W
发射日期 Jul 10, 2023
运行时间 2.9 years
类型 internet

技术详情

分类 Payload
质量 730.00 kg
干质量 700.00 kg
总质量 730.00 kg
长度 0.30 m
直径 4.10 m
跨度 29.00 m
形状 Box + pan
制造商 SPXS
平台类型 Starlink V2M
阶段状态 In Orbit
所有者/国家 SPXS/US

Most Searched